SKY MUSTER 2 (NBN1B)

Last updated on Thu Nov 21 2024 00:02:43 GMT+0000 (Coordinated Universal Time)

1 41794U 16060B 24325.59522435 -.00000243 00000+0 00000+0 0 9997 2 41794 0.0151 288.6261 0001798 312.1095 178.4596 1.00269301 29769
UTC large
Height (km)
Speed (km/s)
/
Latitude / Longitude
Inclination (degrees)
Orbital Period (minutes)
Azimuth
Elevation
Range (km)
Doppler Factor

Next 0 passes for location: London (51.5072 / 0.1276)

Sorry there are no passes over London.